Location: Boiro
(42.6475°N, 8.8834°W)
Time: 01:59:23
(UTC+01:00)

Transit 2A Rocket - Pass Details

Date: 09 December 2021
Orbit: 584 x 917 km, 66.7° (Epoch: 23 January)

Event Time Altitude Azimuth Distance (km) Brightness Sun altitude
Rises 17:35:14 0° 321° (NW) 3,543 8.5 3.3°
Reaches altitude 10° 17:38:00 10° 314° (NW) 2,574 7.9 2.8°
Maximum altitude 17:43:21 35° 250° (WSW) 1,360 7.4 2.0°
Drops below altitude 10° 17:48:23 10° 187° (S) 2,402 8.2 1.3°
Sets 17:50:53 0° 178° (S) 3,276 8.7 0.9°
